Starlink 6091

operational
NORAD ID: 56119 Int'l Des: 2023-046 Owner: SPXS Country: US Constellation: starlink
LEOCIRCULAR

About Starlink 6091

Description loading...

Live Position

Loading 3D Globe...

Upcoming Passes

Altitude History

Altitude vs Time

uPlot chart will show altitude changes over time

Two-Line Element Set

1 56119U 23046AC 26063.16670139 .00569992 00000-0 36620-1 0 9995
2 56119 43.0008 176.3104 0001677 271.1423 222.5655 15.05654034 5816
Epoch: Mar 4, 2026 • Age: 22 hours

Current Status

Altitude 551.7 km
Velocity 7.59 km/s
Sub-Earth Point -23.05°S, 7.11°E
Launch Date Mar 29, 2023
Age 2.9 years
Type internet

Technical Details

Classification Payload
Mass 305.00 kg
Dry Mass 290.00 kg
Total Mass 305.00 kg
Length 0.20 m
Diameter 2.80 m
Span 9.00 m
Shape Box + pan
Manufacturer SPXS
Bus Type Starlink
Phase Status In Orbit
Owner/State SPXS/US

Large Constellations

Loading constellations...